Location: Austin
(30.3000°N, 97.7500°W)
Time: 04:04:55
(UTC-06:00)

CZ-2D R/B - Pass Details

Date: 20 November 2023
Orbit: 494 x 510 km, 97.4° (Epoch: 05 December)

Event Time Altitude Azimuth Distance (km) Brightness Sun altitude
Rises 17:50:26 0° 175° (S) 2,601 7.0 -4.5°
Reaches altitude 10° 17:52:33 10° 179° (S) 1,718 6.1 -4.9°
Maximum altitude 17:56:12 60° 260° (W) 583 3.9 -5.6°
Drops below altitude 10° 17:59:52 10° 341° (NNW) 1,721 5.9 -6.4°
Sets 18:01:59 0° 345° (NNW) 2,606 6.7 -6.8°
